Weather in Verkhneye Volozero

Russia / Republic of Karelia     62°46′18″N   35°25′05″E
temp.,
°C
wind,
m/s
gust,
m/s
humid.,
%
clouds,
%
prec.,
mm/h
press.,
hPa
HPBL,
m
27 july, tue
tue2700:00+14ene2664100 0.0 1020206
03:00+13ene255898 0.0 1021139
06:00+12ene2454100 0.0 1021129
09:00+17ene124183 0.0 1021506
12:00+23nne13340 0.0 10201495
15:00+24nw13325 0.0 10192075
18:00+23wnw12335 0.0 10181438
21:00+17ese22585 0.0 101818
28 july, wed
wed2800:00+13se22642 0.0 101814
03:00+11se22676 0.0 101723
06:00+14sse24655 0.0 1016121
09:00+20s34445 0.0 1014492
12:00+24ssw34406 0.0 10121103
15:00+26sw253657 0.0 10092070
18:00+26s223983 0.0 1007813
21:00+19ssw267726 0.4 1007109
29 july, thu
thu2900:00+16sw128975 0.3 100520
03:00+14wnw119191 0.6 100411
06:00+16wsw008769 0.0 100331
09:00+20sw246637 0.0 1002510
12:00+21s356598 0.1 1001435
15:00+18wnw4784100 1.6 1000361
18:00+17sw3895100 2.0 998390
21:00+16s1397100 6.5 99788
30 july, fri
fri3000:00+16ssw2797100 0.0 996218
03:00+15wsw3109950 0.8 996380
06:00+15sw3109774 0.0 997391
09:00+17wsw4684100 0.1 997517
12:00+22wsw5857100 0.8 9971462
15:00+24wsw583998 0.8 9972430
18:00+21sw595356 0.0 9971256
21:00+17ssw310715 0.4 997317
31 july, sat
sat3100:00+13ssw3119192 0.3 997271
03:00+12ssw2109748 0.8 996243
06:00+13sse3991100 0.1 995264
09:00+17sse51080100 1.1 993822
12:00+15s51089100 1.4 993826
15:00+15s51094100 2.4 992854
18:00+15ssw499473 1.1 991787
21:00+15sw39965 2.9 991392